| time (UTC) | temp C | wind direction | speed KPH | gust KPH | rain 1hr cm | rain 24hr cm | rain mn cm | humidity % | barometer mb |
| 20260901080006 | 14 | 240 | 0.0 | 0.0 | 0.00 | 0.03 | 0.00 | 92 | 1007.8 |
| 20260901074506 | 14 | 240 | 0.0 | 0.0 | 0.00 | 0.03 | 0.00 | 92 | 1007.8 |
| 20260901073010 | 14 | 240 | 0.0 | 0.0 | 0.00 | 0.03 | 0.00 | 92 | 1008.0 |
| 20260901071503 | 14 | 240 | 0.0 | 0.0 | 0.00 | 0.03 | 0.00 | 92 | 1008.0 |
| 20260901070002 | 14 | 266 | 0.0 | 0.0 | 0.00 | 0.03 | 0.00 | 92 | 1007.9 |
| 20260901064601 | 14 | 340 | 0.0 | 0.0 | 0.00 | 0.03 | 0.03 | 92 | 1007.9 |
| 20260901063100 | 15 | 340 | 0.0 | 0.0 | 0.00 | 0.03 | 0.03 | 91 | 1008.0 |
| 20260901061603 | 15 | 340 | 0.0 | 0.0 | 0.00 | 0.03 | 0.03 | 91 | 1008.1 |
| 20260901060059 | 15 | 318 | 0.0 | 0.0 | 0.00 | 0.03 | 0.03 | 91 | 1008.2 |
| 20260901054558 | 15 | 315 | 0.0 | 0.0 | 0.00 | 0.03 | 0.03 | 90 | 1008.3 |
| 20260901053120 | 15 | 315 | 0.0 | 0.0 | 0.00 | 0.03 | 0.03 | 90 | 1008.4 |
| 20260901051557 | 15 | 315 | 0.0 | 0.0 | 0.00 | 0.03 | 0.03 | 89 | 1008.4 |
| 20260901050056 | 15 | 298 | 0.0 | 0.0 | 0.00 | 0.03 | 0.03 | 89 | 1008.4 |
| 20260901044555 | 15 | 279 | 0.0 | 0.0 | 0.00 | 0.03 | 0.03 | 88 | 1008.4 |
| 20260901043118 | 15 | 323 | 0.0 | 0.0 | 0.00 | 0.03 | 0.03 | 88 | 1008.3 |
| 20260901041606 | 15 | 250 | 0.0 | 0.0 | 0.00 | 0.03 | 0.03 | 87 | 1008.2 |
| 20260901034604 | 15 | 222 | 0.0 | 0.0 | 0.00 | 0.03 | 0.03 | 86 | 1008.1 |
| 20260901033104 | 15 | 268 | 0.0 | 0.0 | 0.00 | 0.03 | 0.03 | 85 | 1007.9 |
| 20260901031553 | 15 | 274 | 0.0 | 0.0 | 0.00 | 0.03 | 0.03 | 84 | 1007.8 |
| 20260901030052 | 15 | 333 | 0.0 | 0.0 | 0.00 | 0.03 | 0.03 | 83 | 1007.8 |
| 20260901024555 | 16 | 333 | 0.0 | 0.0 | 0.00 | 0.03 | 0.03 | 82 | 1007.6 |
| 20260901023051 | 16 | 333 | 0.0 | 0.0 | 0.00 | 0.03 | 0.03 | 81 | 1007.6 |
| 20260901021552 | 16 | 355 | 0.0 | 0.0 | 0.00 | 0.03 | 0.03 | 81 | 1007.4 |
| 20260901020050 | 16 | 21 | 0.0 | 6.4 | 0.00 | 0.03 | 0.03 | 81 | 1007.6 |
| 20260901014549 | 16 | 351 | 0.0 | 0.0 | 0.00 | 0.03 | 0.03 | 80 | 1007.6 |
| 20260901013049 | 16 | 17 | 0.0 | 0.0 | 0.00 | 0.03 | 0.03 | 80 | 1007.5 |
| 20260901011555 | 16 | 340 | 0.0 | 0.0 | 0.00 | 0.03 | 0.03 | 80 | 1007.6 |
| 20260901010048 | 16 | 316 | 0.0 | 0.0 | 0.00 | 0.03 | 0.03 | 79 | 1007.6 |
| 20260901004547 | 16 | 282 | 0.0 | 11.3 | 0.00 | 0.03 | 0.03 | 78 | 1007.5 |
| 20260901003055 | 16 | 360 | 0.0 | 6.4 | 0.00 | 0.03 | 0.03 | 78 | 1007.6 |
| 20260901001545 | 17 | 251 | 0.0 | 0.0 | 0.00 | 0.03 | 0.03 | 77 | 1007.5 |
| 20260901000045 | 17 | 317 | 0.0 | 0.0 | 0.00 | 0.03 | 0.03 | 76 | 1007.5 |
| 20260831234545 | 18 | 5 | 0.0 | 1.6 | 0.00 | 0.03 | 0.03 | 75 | 1007.5 |
| 20260831233044 | 17 | 332 | 0.0 | 0.0 | 0.00 | 0.03 | 0.03 | 75 | 1007.6 |
| 20260831231544 | 17 | 5 | 0.0 | 0.0 | 0.00 | 0.03 | 0.03 | 75 | 1007.7 |
| 20260831230044 | 17 | 22 | 0.0 | 0.0 | 0.00 | 0.03 | 0.03 | 73 | 1007.9 |
| 20260831224542 | 18 | 175 | 0.0 | 0.0 | 0.00 | 0.03 | 0.03 | 75 | 1007.9 |
| 20260831223043 | 18 | 270 | 0.0 | 0.0 | 0.00 | 0.03 | 0.03 | 74 | 1008.0 |
| 20260831221543 | 18 | 257 | 0.0 | 1.6 | 0.00 | 0.03 | 0.03 | 73 | 1008.0 |
| 20260831220045 | 19 | 346 | 0.0 | 0.0 | 0.00 | 0.03 | 0.03 | 71 | 1008.1 |
| 20260831214544 | 19 | 64 | 0.0 | 0.0 | 0.00 | 0.03 | 0.03 | 72 | 1008.1 |
| 20260831213043 | 18 | 360 | 0.0 | 6.4 | 0.00 | 0.03 | 0.03 | 72 | 1008.1 |
| 20260831211536 | 19 | 236 | 0.0 | 1.6 | 0.00 | 0.03 | 0.03 | 73 | 1008.1 |
| 20260831210038 | 19 | 360 | 0.0 | 0.0 | 0.00 | 0.03 | 0.03 | 74 | 1008.2 |
| 20260831204532 | 18 | 194 | 0.0 | 0.0 | 0.00 | 0.03 | 0.03 | 77 | 1008.2 |
| 20260831203047 | 18 | 338 | 0.0 | 0.0 | 0.00 | 0.03 | 0.03 | 78 | 1008.1 |
| 20260831201525 | 17 | 322 | 0.0 | 0.0 | 0.00 | 0.03 | 0.03 | 81 | 1008.2 |
| 20260831200035 | 17 | 336 | 0.0 | 3.2 | 0.00 | 0.03 | 0.03 | 82 | 1008.2 |
| 20260831194523 | 16 | 279 | 0.0 | 0.0 | 0.00 | 0.03 | 0.03 | 84 | 1008.3 |
| 20260831193025 | 16 | 279 | 0.0 | 0.0 | 0.00 | 0.03 | 0.03 | 86 | 1008.5 |
| 20260831191516 | 16 | 263 | 0.0 | 3.2 | 0.00 | 0.03 | 0.03 | 89 | 1008.4 |
| 20260831190014 | 15 | 294 | 0.0 | 0.0 | 0.00 | 0.03 | 0.03 | 92 | 1008.5 |
| 20260831184511 | 15 | 5 | 0.0 | 0.0 | 0.00 | 0.03 | 0.03 | 94 | 1008.7 |
| 20260831183007 | 13 | 5 | 0.0 | 0.0 | 0.00 | 0.03 | 0.03 | 95 | 1008.6 |
| 20260831181504 | 13 | 216 | 0.0 | 3.2 | 0.00 | 0.03 | 0.03 | 96 | 1008.5 |
| 20260831180003 | 13 | 249 | 0.0 | 0.0 | 0.00 | 0.03 | 0.03 | 96 | 1008.4 |
| 20260831174503 | 13 | 78 | 0.0 | 0.0 | 0.00 | 0.03 | 0.03 | 96 | 1008.2 |
| 20260831173106 | 13 | 24 | 0.0 | 0.0 | 0.00 | 0.03 | 0.03 | 96 | 1008.1 |
| 20260831171606 | 12 | 273 | 0.0 | 0.0 | 0.00 | 0.03 | 0.03 | 96 | 1008.1 |
| 20260831170057 | 12 | 188 | 0.0 | 0.0 | 0.00 | 0.03 | 0.03 | 96 | 1008.0 |
| 20260831164601 | 12 | 187 | 0.0 | 0.0 | 0.00 | 0.03 | 0.03 | 96 | 1007.9 |
| 20260831163053 | 12 | 188 | 0.0 | 0.0 | 0.00 | 0.03 | 0.03 | 96 | 1007.9 |
| 20260831161551 | 12 | 188 | 0.0 | 0.0 | 0.00 | 0.03 | 0.03 | 96 | 1007.9 |
| 20260831160117 | 12 | 188 | 0.0 | 0.0 | 0.00 | 0.03 | 0.03 | 96 | 1007.9 |
| 20260831154547 | 11 | 187 | 0.0 | 0.0 | 0.00 | 0.03 | 0.03 | 96 | 1007.8 |
| 20260831153120 | 11 | 188 | 0.0 | 0.0 | 0.00 | 0.03 | 0.03 | 96 | 1007.7 |
| 20260831151542 | 11 | 188 | 0.0 | 0.0 | 0.00 | 0.03 | 0.03 | 96 | 1007.6 |
| 20260831150040 | 10 | 188 | 0.0 | 0.0 | 0.00 | 0.03 | 0.03 | 96 | 1007.5 |
| 20260831144537 | 10 | 188 | 0.0 | 0.0 | 0.00 | 0.03 | 0.03 | 96 | 1007.3 |
| 20260831143038 | 10 | 188 | 0.0 | 0.0 | 0.00 | 0.03 | 0.03 | 96 | 1007.2 |
| 20260831141539 | 10 | 188 | 0.0 | 0.0 | 0.00 | 0.03 | 0.03 | 96 | 1007.0 |
| 20260831140032 | 10 | 187 | 0.0 | 0.0 | 0.00 | 0.03 | 0.03 | 96 | 1006.8 |
| 20260831134530 | 10 | 188 | 0.0 | 0.0 | 0.00 | 0.03 | 0.03 | 96 | 1006.7 |
| 20260831133031 | 10 | 188 | 0.0 | 0.0 | 0.00 | 0.03 | 0.03 | 96 | 1006.6 |
| 20260831131531 | 10 | 187 | 0.0 | 0.0 | 0.00 | 0.03 | 0.03 | 96 | 1006.6 |
| 20260831130026 | 10 | 188 | 0.0 | 0.0 | 0.00 | 0.03 | 0.03 | 96 | 1006.5 |
| 20260831124524 | 10 | 238 | 0.0 | 0.0 | 0.00 | 0.03 | 0.03 | 96 | 1006.3 |
| 20260831123039 | 10 | 242 | 0.0 | 0.0 | 0.00 | 0.03 | 0.03 | 96 | 1006.4 |
| 20260831121528 | 10 | 242 | 0.0 | 0.0 | 0.00 | 0.03 | 0.03 | 95 | 1006.4 |
| 20260831120033 | 10 | 242 | 0.0 | 0.0 | 0.00 | 0.03 | 0.03 | 95 | 1006.3 |
| 20260831114523 | 10 | 242 | 0.0 | 0.0 | 0.00 | 0.03 | 0.03 | 95 | 1006.3 |
| 20260831113023 | 10 | 242 | 0.0 | 0.0 | 0.03 | 0.03 | 0.03 | 95 | 1006.2 |
| 20260831111517 | 10 | 242 | 0.0 | 0.0 | 0.03 | 0.03 | 0.03 | 95 | 1005.9 |
| 20260831110014 | 10 | 242 | 0.0 | 0.0 | 0.03 | 0.03 | 0.03 | 95 | 1005.9 |
| 20260831104527 | 10 | 242 | 0.0 | 0.0 | 0.03 | 0.03 | 0.03 | 95 | 1005.8 |
| 20260831103014 | 10 | 242 | 0.0 | 0.0 | 0.00 | 0.00 | 0.00 | 95 | 1005.7 |
| 20260831101520 | 10 | 242 | 0.0 | 0.0 | 0.00 | 0.00 | 0.00 | 95 | 1005.6 |
| 20260831100021 | 10 | 242 | 0.0 | 0.0 | 0.00 | 0.00 | 0.00 | 94 | 1005.6 |
| 20260831094509 | 11 | 242 | 0.0 | 0.0 | 0.00 | 0.00 | 0.00 | 95 | 1005.6 |
| 20260831093009 | 10 | 30 | 0.0 | 0.0 | 0.00 | 0.00 | 0.00 | 94 | 1005.6 |
| 20260831091508 | 10 | 30 | 0.0 | 0.0 | 0.00 | 0.00 | 0.00 | 95 | 1005.5 |
| 20260831090006 | 10 | 30 | 0.0 | 0.0 | 0.00 | 0.00 | 0.00 | 94 | 1005.5 |
| 20260831084505 | 10 | 30 | 0.0 | 0.0 | 0.00 | 0.00 | 0.00 | 94 | 1005.6 |
| 20260831083004 | 10 | 30 | 0.0 | 0.0 | 0.00 | 0.00 | 0.00 | 94 | 1005.5 |
| 20260831081502 | 11 | 30 | 0.0 | 0.0 | 0.00 | 0.00 | 0.00 | 94 | 1005.7 |